Tomahawk, WI

9:02 PM CDT on September 29, 2016 (GMT -0500)
Tomahawk

Weather History for KTKV - November, 2013

Change the Weather History Date:

Friday, November 22, 2013

  Actual Average (KRHI) Record (KRHI)
Temperature  
Mean Temperature 22 °F 27 °F  
Max Temperature 29 °F 34 °F 60 °F (2012)
Min Temperature 15 °F 20 °F -8 °F (1929)
Degree Days  
Heating Degree Days 42 38  
Month to date heating degree days 717  
Since 1 July heating degree days 1810  
Cooling Degree Days 0 0  
Month to date cooling degree days 0  
Year to date cooling degree days 261  
Moisture  
Dew Point 15 °F    
Average Humidity 71    
Maximum Humidity 91    
Minimum Humidity 40    
Precipitation  
Precipitation 0.00 in 0.06 in 0.93 in (1934)
Month to date precipitation 1.37  
Year to date precipitation 29.49  
Snow  
Snow 0.00 in - 4.80 in (1961)
Month to date snowfall  
Since 1 July snowfall  
Since 1 September snowfall  
Snow Depth -    
Sea Level Pressure  
Sea Level Pressure 30.37 in    
Wind  
Wind Speed 8 mph (WNW)    
Max Wind Speed 14 mph    
Max Gust Speed 20 mph    
Visibility 8 miles    
Events Snow    
T = Trace of Precipitation, MM = Missing Value Source: NWS Daily Summary

Daily Weather History Graph

Daily Weather History Graph

Search for Another Location

Airport or City:

Trip Planner

Search our weather history database for the weather conditions in past years. The results will help you decide how hot, cold, wet, or windy it might be!

Date:

Astronomy

Nov. 22, 2013 Rise Set
Actual Time 7:07 AM CST 4:22 PM CST
Civil Twilight 6:35 AM CST 4:55 PM CST
Nautical Twilight 5:58 AM CST 5:31 PM CST
Astronomical Twilight 5:23 AM CST 6:06 PM CST
Moon 8:58 PM CST (11/22) 10:48 AM CST (11/22)
Length of Visible Light 10h 20m
Length of Day
9h 14m
Waning Gibbous, 78% of the Moon is Illuminated
Nov 22
Waning Gibbous
Nov 25
Last Quarter
Dec 2
New
Dec 9
First Quarter
Dec 17
Full

Hourly Weather History & Observations

Time (CST) Temp. Windchill Dew Point Humidity Pressure Visibility Wind Dir Wind Speed Gust Speed Precip Events Conditions
12:15 AM 26.6 °F 17.5 °F 23.9 °F 90% 30.33 in 2.5 mi NNW 9.2 mph - N/A Snow Light Snow
12:35 AM 26.4 °F 16.6 °F 23.7 °F 90% 30.33 in 2.0 mi NNW 10.4 mph - N/A Snow Light Snow
12:55 AM 25.7 °F 18.0 °F 23.0 °F 89% 30.34 in 2.0 mi NNW 6.9 mph 17.3 mph N/A Snow Light Snow
1:15 AM 25.5 °F 14.9 °F 22.3 °F 88% 30.34 in 2.5 mi NNW 11.5 mph 18.4 mph N/A Snow Light Snow
1:35 AM 25.3 °F 16.7 °F 22.5 °F 89% 30.34 in 2.0 mi NNW 8.1 mph 16.1 mph N/A Snow Light Snow
1:55 AM 25.2 °F 15.1 °F 22.6 °F 90% 30.35 in 2.5 mi North 10.4 mph - N/A Snow Light Snow
2:15 AM 24.8 °F 16.1 °F 22.5 °F 91% 30.35 in 2.5 mi NW 8.1 mph - N/A Snow Light Snow
2:35 AM 24.6 °F 16.7 °F 22.1 °F 90% 30.36 in 2.0 mi NW 6.9 mph - N/A Snow Light Snow
2:55 AM 24.3 °F 17.3 °F 21.7 °F 90% 30.37 in 2.0 mi NW 5.8 mph - N/A Snow Light Snow
3:15 AM 23.9 °F 16.8 °F 21.6 °F 91% 30.37 in 4.0 mi NNW 5.8 mph - N/A Snow Light Snow
3:35 AM 23.9 °F 14.2 °F 21.0 °F 89% 30.37 in 4.0 mi NNW 9.2 mph - N/A Snow Light Snow
3:55 AM 23.9 °F 14.2 °F 20.8 °F 88% 30.37 in 10.0 mi NW 9.2 mph - N/A   Overcast
4:15 AM 23.7 °F 15.6 °F 20.1 °F 86% 30.37 in 10.0 mi NW 6.9 mph - N/A   Overcast
4:35 AM 23.5 °F 13.7 °F 19.4 °F 84% 30.37 in 10.0 mi NW 9.2 mph - N/A   Overcast
4:55 AM 23.4 °F 12.8 °F 19.2 °F 84% 30.38 in 10.0 mi NNW 10.4 mph 17.3 mph N/A   Overcast
5:15 AM 23.0 °F 14.7 °F 19.0 °F 85% 30.38 in 10.0 mi NNW 6.9 mph 16.1 mph N/A   Overcast
5:35 AM 23.0 °F 15.8 °F 19.4 °F 86% 30.38 in 10.0 mi NW 5.8 mph - N/A   Overcast
5:55 AM 23.0 °F 13.9 °F 19.4 °F 86% 30.38 in 10.0 mi North 8.1 mph - N/A   Overcast
6:15 AM 23.0 °F 14.7 °F 19.4 °F 86% 30.40 in 10.0 mi NW 6.9 mph - N/A   Overcast
6:35 AM 23.0 °F 13.1 °F 18.7 °F 84% 30.40 in 10.0 mi NW 9.2 mph - N/A   Overcast
6:55 AM 22.8 °F 14.5 °F 18.5 °F 83% 30.42 in 10.0 mi NW 6.9 mph - N/A   Overcast
7:15 AM 22.6 °F 12.6 °F 17.2 °F 80% 30.43 in 10.0 mi NNW 9.2 mph - N/A   Overcast
7:35 AM 22.5 °F 15.1 °F 17.6 °F 82% 30.43 in 10.0 mi NW 5.8 mph - N/A   Overcast
7:55 AM 22.5 °F 13.2 °F 16.3 °F 77% 30.43 in 10.0 mi North 8.1 mph - N/A   Overcast
8:15 AM 22.6 °F 14.3 °F 16.9 °F 79% 30.43 in 10.0 mi NW 6.9 mph - N/A   Overcast
8:35 AM 22.6 °F 16.5 °F 16.9 °F 79% 30.42 in 10.0 mi NNW 4.6 mph - N/A   Overcast
8:55 AM 22.5 °F 15.1 °F 16.3 °F 77% 30.42 in 10.0 mi North 5.8 mph - N/A   Overcast
9:15 AM 23.0 °F 15.8 °F 16.7 °F 77% 30.43 in 10.0 mi NNW 5.8 mph - N/A   Overcast
9:35 AM 22.6 °F 14.3 °F 16.2 °F 76% 30.43 in 10.0 mi NNW 6.9 mph - N/A   Mostly Cloudy
9:55 AM 23.5 °F 15.4 °F 16.9 °F 76% 30.43 in 10.0 mi West 6.9 mph - N/A   Mostly Cloudy
10:15 AM 23.4 °F 17.4 °F 16.2 °F 74% 30.43 in 10.0 mi WNW 4.6 mph - N/A   Mostly Cloudy
10:35 AM 24.3 °F 17.3 °F 16.2 °F 71% 30.43 in 10.0 mi WNW 5.8 mph - N/A   Scattered Clouds
10:55 AM 24.8 °F 16.9 °F 16.3 °F 70% 30.42 in 10.0 mi West 6.9 mph - N/A   Scattered Clouds
11:15 AM 24.6 °F 15.1 °F 14.9 °F 67% 30.41 in 10.0 mi West 9.2 mph - N/A   Clear
11:35 AM 25.3 °F 17.6 °F 14.5 °F 64% 30.41 in 10.0 mi WNW 6.9 mph - N/A   Clear
11:55 AM 26.4 °F 22.4 °F 14.5 °F 61% 30.41 in 10.0 mi West 3.5 mph - N/A   Clear
12:15 PM 27.0 °F 23.0 °F 14.4 °F 59% 30.39 in 10.0 mi West 3.5 mph - N/A   Clear
12:35 PM 27.7 °F 19.6 °F 12.6 °F 53% 30.38 in 10.0 mi WNW 8.1 mph - N/A   Clear
12:55 PM 28.2 °F 24.4 °F 12.7 °F 52% 30.37 in 10.0 mi SSW 3.5 mph - N/A   Clear
1:15 PM 28.8 °F 22.6 °F 12.2 °F 50% 30.37 in 10.0 mi WSW 5.8 mph - N/A   Clear
1:35 PM 29.1 °F 23.0 °F 10.2 °F 45% 30.36 in 10.0 mi West 5.8 mph - N/A   Clear
1:55 PM 29.3 °F 22.3 °F 10.4 °F 45% 30.36 in 10.0 mi WSW 6.9 mph - N/A   Clear
2:15 PM 29.3 °F 23.2 °F 9.7 °F 44% 30.35 in 10.0 mi WSW 5.8 mph - N/A   Clear
2:35 PM 29.3 °F 23.2 °F 9.9 °F 44% 30.34 in 10.0 mi WSW 5.8 mph - N/A   Clear
2:55 PM 29.5 °F 22.5 °F 7.9 °F 40% 30.34 in 10.0 mi SW 6.9 mph - N/A   Clear
3:15 PM 28.8 °F 23.7 °F 9.0 °F 43% 30.33 in 10.0 mi WSW 4.6 mph - N/A   Clear
3:35 PM 28.2 °F 23.1 °F 10.0 °F 47% 30.33 in 10.0 mi SW 4.6 mph - N/A   Clear
3:55 PM 27.3 °F 20.9 °F 7.7 °F 44% 30.33 in 10.0 mi SW 5.8 mph - N/A   Clear
4:15 PM 26.6 °F 20.0 °F 8.8 °F 47% 30.33 in 10.0 mi WSW 5.8 mph - N/A   Clear
4:35 PM 26.1 °F 21.9 °F 9.5 °F 50% 30.33 in 10.0 mi SW 3.5 mph - N/A   Clear
4:55 PM 25.3 °F 21.1 °F 12.0 °F 57% 30.33 in 10.0 mi SW 3.5 mph - N/A   Clear
5:15 PM 24.6 °F 20.3 °F 11.7 °F 58% 30.33 in 10.0 mi SW 3.5 mph - N/A   Clear
5:35 PM 23.7 °F 19.3 °F 11.3 °F 59% 30.34 in 10.0 mi SW 3.5 mph - N/A   Scattered Clouds
5:55 PM 23.5 °F 16.4 °F 10.9 °F 59% 30.33 in 10.0 mi WSW 5.8 mph - N/A   Scattered Clouds
6:15 PM 22.8 °F 16.7 °F 10.9 °F 60% 30.33 in 10.0 mi WSW 4.6 mph - N/A   Scattered Clouds
6:35 PM 22.5 °F 15.1 °F 11.1 °F 62% 30.32 in 10.0 mi WSW 5.8 mph - N/A   Mostly Cloudy
6:55 PM 22.1 °F 15.9 °F 11.1 °F 63% 30.32 in 10.0 mi West 4.6 mph - N/A   Mostly Cloudy
7:15 PM 21.4 °F 15.1 °F 11.3 °F 65% 30.32 in 10.0 mi West 4.6 mph - N/A   Scattered Clouds
7:35 PM 20.3 °F 12.5 °F 11.3 °F 68% 30.32 in 10.0 mi West 5.8 mph - N/A   Clear
7:55 PM 19.4 °F 11.5 °F 11.1 °F 70% 30.33 in 10.0 mi West 5.8 mph - N/A   Clear
8:15 PM 19.0 °F 12.3 °F 11.1 °F 71% 30.32 in 10.0 mi West 4.6 mph - N/A   Scattered Clouds
8:35 PM 20.1 °F 8.8 °F 11.3 °F 69% 30.33 in 10.0 mi WNW 10.4 mph - N/A   Overcast
8:55 PM 20.3 °F 11.5 °F 13.5 °F 75% 30.33 in 7.0 mi WNW 6.9 mph - N/A   Overcast
9:15 PM 19.6 °F 10.6 °F 14.7 °F 81% 30.34 in 5.0 mi WNW 6.9 mph - N/A   Overcast
9:35 PM 19.6 °F 7.4 °F 14.2 °F 80% 30.34 in 7.0 mi WNW 11.5 mph - N/A   Overcast
9:55 PM 18.9 °F 7.2 °F 13.6 °F 80% 30.35 in 3.0 mi NW 10.4 mph - N/A Snow Light Snow
10:15 PM 18.5 °F 6.8 °F 11.8 °F 75% 30.35 in 10.0 mi NW 10.4 mph 16.1 mph N/A Snow Light Snow
10:35 PM 18.3 °F 9.1 °F 10.4 °F 71% 30.35 in 10.0 mi NW 6.9 mph - N/A   Overcast
10:55 PM 17.6 °F 6.4 °F 9.5 °F 71% 30.37 in 10.0 mi WNW 9.2 mph 17.3 mph N/A   Overcast
11:15 PM 16.9 °F 6.4 °F 11.5 °F 79% 30.38 in 3.0 mi NW 8.1 mph 19.6 mph N/A Snow Light Snow
11:35 PM 16.5 °F 6.0 °F 11.7 °F 81% 30.38 in 10.0 mi NW 8.1 mph - N/A Snow Light Snow
11:55 PM 15.8 °F 1.4 °F 10.4 °F 79% 30.39 in 5.0 mi NNW 13.8 mph 19.6 mph N/A Snow Light Snow